Regional Weather Roundup
Issued by NWS

Home | Current Version | Previous Version | Text Only | Print | Product List | Glossary On
Versions: 1 2 3 4 5 6 7 8 9 10 11 12 13 14 15 16 17 18 19 20 21 22 23 24 25 26 27 28 29 30 31 32 33 34 35 36 37 38 39 40 41 42 43 44 45 46 47 48 49 50
000
ASUS44 KFWD 060510
RWRTX
NORTH TEXAS HOURLY WEATHER ROUNDUP
NATIONAL WEATHER SERVICE FORT WORTH TX
1200 AM CDT MON JUL 06 2015

NOTE: "FAIR" INDICATES FEW OR NO CLOUDS BELOW 12,000 FEET WITH NO
SIGNIFICANT WEATHER AND/OR OBSTRUCTIONS TO VISIBILITY.

TXZ118-119-060600-
DALLAS/FORT WORTH METROPLEX

CITY           SKY/WX    TMP DP  RH WIND       PRES   REMARKS
DFW AIRPORT    PTCLDY    84  71  65 S13       29.97S
DALLAS LOVE    PTCLDY    85  71  63 S16       29.98S HX  90
FTW MEACHAM    CLEAR     84  71  65 S18       29.97S
DAL-EXECUTIVE  CLEAR     82  72  71 S13G18    29.99S
FTW-ALLIANCE   PTCLDY    83  71  67 S16G23    29.97S
FTW-NAS-JRB    CLEAR     84  71  65 S15       29.98S
FTW-SPINKS     CLEAR     82  71  70 S13G18    30.00S HAZE
ARLINGTON        N/A    N/A N/A N/A MISG      29.98F
GRAND PRAIRIE  CLEAR     83  73  71 SE12G17   30.00S
ADDISON        CLEAR     85  73  68 S14G22    30.00S HX  91
MESQUITE       CLEAR     81  72  73 S10       30.00S
LANCASTER      CLEAR     82  70  68 S12       30.01S
$$

TXZ091>094-102>105-117-120-121-131>134-060600-
NORTH CENTRAL TEXAS

CITY           SKY/WX    TMP DP  RH WIND       PRES   REMARKS
SHRMAN/DENISON CLEAR     82  73  72 S14       29.99F
GAINESVILLE    CLEAR     81  71  70 SE9       29.99F
BRIDGEPORT     CLEAR     82  71  71 S8        29.98S
DECATUR        CLEAR     82  68  63 S9        29.98F
DENTON         CLEAR     82  72  71 S13       29.97S
MCKINNEY       CLEAR     82  72  71 S12       29.99S
GREENVILLE     CLEAR     81  70  69 S8        30.01R
ROCKWALL       CLEAR     82  73  75 S10G16    29.99S
TERRELL        CLEAR     80  73  79 S6        30.01R
WAXAHACHIE     CLEAR     80  73  77 SE10      30.01S
CLEBURNE         N/A     81  73  78 SE9       30.01S
GRANBURY       CLEAR     84  70  61 SE13G25   29.99F
$$

TXZ083>090-098>101-113>116-127>130-139>142-154-155-060600-
WESTERN NORTH TEXAS

CITY           SKY/WX    TMP DP  RH WIND       PRES   REMARKS
WICHITA FALLS  CLEAR     82  69  64 S17       29.93S
WF-KICKAPOO    CLEAR     83  70  63 SE12G18   29.95S
VERNON         PTCLDY    83  60  45 S10       29.93S
ABILENE        CLEAR     82  66  58 S14       29.98R
ABILENE-DYESS  CLEAR     81  67  62 S15       29.96R
BRECKENRIDGE   CLEAR     83  67  58 S10       29.96S
GRAHAM         CLEAR     83  71  66 SE9G18    29.95S
MINERAL WELLS  CLEAR     81  70  69 SE9       29.96F
STEPHENVILLE   PTCLDY    79  69  70 S7        30.02F
COMANCHE       CLEAR     79  71  76 S9        30.00S
BROWNWOOD      MOCLDY    81  68  65 SE13      29.99F
COLEMAN        CLEAR     80  70  70 S8        30.00S
BRADY          CLEAR     79  70  73 N9        30.01S
$$

TXZ143>147-156>162-174-175-060600-
CENTRAL TEXAS

CITY           SKY/WX    TMP DP  RH WIND       PRES   REMARKS
WACO           PTCLDY    81  72  74 S16G25    30.01R
WACO-MCGREGOR  CLEAR     79  70  73 S10       30.03R
HILLSBORO      CLEAR     80  70  70 SE13G20   30.01S
CORSICANA      CLEAR     81  72  74 S9        30.02S
MEXIA          CLEAR     79  72  79 SE16      30.02S
HEARNE         CLEAR     80  73  81 SE10      30.04S
CAMERON        CLEAR     81  74  79 S14       30.02F
TEMPLE         CLEAR     79  70  73 SE18      30.01S
KILLEEN        MOCLDY    79  73  79 S15       30.02R
KILLEEN-SKYLRK CLEAR     79  70  73 S14G21    30.01S
FORT HOOD      PTCLDY    79  73  81 S13       30.01R
GATESVILLE     CLEAR     81  72  74 S12G18    30.03S
HAMILTON       PTCLDY    79  70  73 MISG      30.03R
$$

TXZ095>097-106>112-122>126-135>138-148>153-164>167-060600-
EAST TEXAS

CITY           SKY/WX    TMP DP  RH WIND       PRES   REMARKS
PARIS          CLEAR     79  72  78 SE8       30.01S
SULPHUR SPRNGS CLEAR     83  71  67 S10       30.02S
MOUNT PLEASANT CLEAR     76  72  87 SE6       30.03R
GILMER         MOCLDY    76  72  86 SE6       30.02S
MINEOLA        CLEAR     81  73  78 SE3       30.02S
TYLER          CLOUDY    82  74  76 S12       30.02R
LONGVIEW       PTCLDY    79  72  79 SE10      30.02F
MARSHALL         N/A     76  72  86 S6        30.05F
ATHENS         CLEAR     81  73  78 S9        30.00S
PALESTINE      CLEAR     81  76  82 SE9       30.04S HAZE
JACKSONVILLE   CLEAR     80  74  80 S9        30.07S
HENDERSON      PTCLDY    78  74  88 SE5       30.04F
CENTER         FAIR      73  71  93 SE6       30.05S
NACOGDOCHES    PTCLDY   N/A N/A N/A S12       30.04F
LUFKIN         MOCLDY    82  74  76 S8        30.05F
$$

SUPPLEMENTAL OBSERVATIONS (CENTRAL)

CITY           SKY/WX    TMP DP  RH WIND       PRES   REMARKS
CADDO GRASSLND   N/A     81  70  69 S7          N/A
PAT MAYSE LAKE   N/A     82  75  78 SE9         N/A
GREENVILLE       N/A     81  70  69 S8          N/A
CEDAR HILL       N/A     82  72  69 SE12        N/A
MCGREGOR         N/A     81  72  74 S14         N/A
TEMPLE           N/A     79  72  78 S10         N/A
$$

SUPPLEMENTAL OBSERVATIONS (WEST)

CITY           SKY/WX    TMP DP  RH WIND       PRES   REMARKS
MILLERS CREEK    N/A     81  66  61 SE9         N/A
POSSUM KINGDOM   N/A     82  68  61 S12         N/A
LBJ GRASSLAND    N/A     82  70  65 SE9         N/A
GRANBURY         N/A     82  68  61 S16G23      N/A
HAMBY            N/A     81  64  57 S13         N/A
IVIE RESERVOIR   N/A     81  68  65 SE9         N/A
COLORADO BEND    N/A     79  70  73 S12         N/A
$$

SUPPLEMENTAL OBSERVATIONS (EAST)

CITY           SKY/WX    TMP DP  RH WIND       PRES   REMARKS
GILMER           N/A     77  72  83 SE6         N/A
HENDERSON        N/A     79  73  83 S3          N/A
N SABINE NF      N/A     73  70  88 MISG        N/A
S SABINE NF      N/A     73  68  83 CALM        N/A
$$

SUPPLEMENTAL OBSERVATIONS ARE A COLLECTION OF AUTOMATED INSTRUMENTS
THAT ARE MAINTAINED BY A VARIETY OF FEDERAL AND STATE AGENCIES.
CERTAIN ELEMENTS...SUCH AS HUMIDITY VALUES AND SUSTAINED WIND
SPEEDS...MAY BE APPROXIMATED.




USA.gov is the U.S. government's official web portal to all federal, state and local government web resources and services.